User: anonymous   Login
Location: Unspecified
(0.0000°N, 0.0000°E)
Time: 20:20:10
(UTC+00:00)
Language:

STARLINK-31147 - Orbit

View from above orbital plane
View from above orbital plane
View from above satellite
View from above satellite

Ground track
Ground track

The orbit is defined by the following mean orbital elements,

1 58681U          26145.32677316 +.00000000 +00000-0 +40301-4 0 00006
2 58681  43.0008  12.6143 0001128 279.5706  80.5018 15.27579850    01
Epoch (UTC): 25 May 2026 07:50:33
Eccentricity: 0.0001128
inclination: 43.0008°
perigee height: 482 km
apogee height: 484 km
right ascension of ascending node: 12.6143°
argument of perigee: 279.5706°
revolutions per day: 15.27579850
mean anomaly at epoch: 80.5018°

The dashed part of the orbit path shows where the satellite is in the earth's shadow,  

DLR